This is the latest recevied weather packets stored in our database for station/object WP4PW. If no packets are shown the sender has not sent any weather packets the latest 10 day(s).
| Time | Temp. | Humidity | Pressure | Rain* | Wind** | Luminosity | Snow |
|---|---|---|---|---|---|---|---|
| 1777844941 | 28.33° C | 81% | 1019.6 hPa | 0 mm | - | 93 W/m² | - |
| 1777844639 | 28.33° C | 80% | 1019.8 hPa | 0 mm | - | 105 W/m² | - |
| 1777844336 | 28.89° C | 80% | 1019.6 hPa | 0 mm | - | 119 W/m² | - |
| 1777844034 | 28.89° C | 79% | 1019.8 hPa | 0 mm | - | 134 W/m² | - |
| 1777843730 | 28.89° C | 80% | 1019.9 hPa | 0 mm | - | 150 W/m² | - |
| 1777843428 | 28.89° C | 79% | 1019.6 hPa | 0 mm | - | 164 W/m² | - |
| 1777843125 | 28.89° C | 80% | 1019.8 hPa | 0 mm | - | 178 W/m² | - |
| 1777842822 | 28.89° C | 79% | 1019.5 hPa | 0 mm | - | 196 W/m² | - |
| 1777842517 | 28.89° C | 78% | 1019.5 hPa | 0 mm | - | 211 W/m² | - |
| 1777842214 | 28.89° C | 79% | 1019.5 hPa | 0 mm | - | 227 W/m² | - |
| 1777841909 | 28.89° C | 79% | 1019.5 hPa | 0 mm | - | 241 W/m² | - |
| 1777841606 | 29.44° C | 78% | 1019.5 hPa | 0 mm | - | 259 W/m² | - |
| 1777841303 | 30° C | 77% | 1019.6 hPa | 0 mm | - | 274 W/m² | - |
| 1777841000 | 29.44° C | 78% | 1019.5 hPa | 0 mm | - | 290 W/m² | - |
| 1777840697 | 29.44° C | 78% | 1019.6 hPa | 0 mm | - | 304 W/m² | - |
| 1777840395 | 29.44° C | 78% | 1019.7 hPa | 0 mm | - | 320 W/m² | - |
| 1777840092 | 28.89° C | 77% | 1019.6 hPa | 0 mm | - | 337 W/m² | - |
| 1777839790 | 28.89° C | 78% | 1019.8 hPa | 0 mm | - | 353 W/m² | - |
| 1777839488 | 29.44° C | 78% | 1019.7 hPa | 0 mm | - | 368 W/m² | - |
| 1777839184 | 29.44° C | 76% | 1019.8 hPa | 0 mm | - | 385 W/m² | - |
| 1777838876 | 29.44° C | 76% | 1019.8 hPa | 0 mm | - | 403 W/m² | - |
| 1777838571 | 30° C | 77% | 1019.9 hPa | 0 mm | - | 419 W/m² | - |
| 1777838264 | 29.44° C | 77% | 1019.8 hPa | 0 mm | - | 433 W/m² | - |
| 1777837960 | 30° C | 76% | 1019.9 hPa | 0 mm | - | 449 W/m² | - |
| 1777837658 | 29.44° C | 77% | 1019.8 hPa | 0 mm | - | 466 W/m² | - |
* Rain latest hour (hover to see other rain measurements)
** Current wind speed in m/s (hover to see current wind gust speed)